Weather in Tavrichanka

Russia / Amur Oblast     50°57′30″N   128°19′58″E
temp.,
°C
wind,
m/s
gust,
m/s
humid.,
%
clouds,
%
prec.,
mm/h
press.,
hPa
HPBL,
m
21 april, wed
wed2100:00+4s463258 0.0 101474
03:00+2sse46441 0.0 101474
06:00+2sse375049 0.0 101598
09:00+10s57312 0.0 1014389
12:00+16s68250 0.0 1013909
15:00+22s810200 0.0 10101713
18:00+20s812250 0.0 1010972
21:00+16s716340 0.0 1011338
22 april, thu
thu2200:00+13s6153683 0.0 1011291
03:00+13s6154184 0.0 1010351
06:00+11sse71647100 0.0 1010351
09:00+15s91642100 0.2 1010528
12:00+21ssw81131100 0.3 10101116
15:00+25wsw7102192 0.3 10102585
18:00+17nnw7836100 0.0 1014666
21:00+9nnw71157100 0.0 1020528
23 april, fri
fri2300:00+6nnw71159100 0.0 1024699
03:00+4nnw61044100 0.0 1026684
06:00+2nnw61040100 0.0 1028694
09:00+3nnw7937100 0.4 1029778
12:00+8nnw782399 0.1 10291403
15:00+8nnw8917100 0.1 10291622
18:00+8nnw71016100 0.0 10291960
21:00+4n7132420 0.0 1031693
24 april, sat
sat2400:00+1nnw49350 0.0 1032208
03:00−1nw49440 0.0 1032191
06:00−2wnw410500 0.0 1031242
09:00+6nw710250 0.0 10291157
12:00+10nw8112297 0.0 10262385
15:00+11nnw91521100 0.0 10232939
18:00+11nnw71421100 0.0 10213192
21:00+7nnw6133292 0.0 1021452
25 april, sun
sun2500:00+5nw814390 0.0 1020908
03:00+3nnw813485 0.0 10211046
06:00+2nnw613540 0.0 10221298
09:00+5n710354 0.0 10221743
12:00+9nnw79220 0.0 10212123
15:00+12nnw792389 0.0 10182592
18:00+12nnw572380 0.0 10172587
21:00+7wsw22345 0.0 101710